KC3SPD-13 Weather Reports


Display with metric or nautical units.
time (UTC)temp
F
wind
direction
speed
MPH
gust
MPH
rain 1hr
in
rain 24hr
in
rain mn
in
humidity
%
barometer
mb
20260507211504 64 307 3.0 7.0 0.00 0.20 0.00 40 960.9
20260507211004 64 321 3.0 7.0 0.00 0.20 0.00 40 960.6
20260507210503 64 315 3.0 9.0 0.00 0.20 0.00 39 960.7
20260507210004 64 295 5.0 8.0 0.00 0.20 0.00 40 960.6
20260507205003 64 281 3.0 7.0 0.00 0.20 0.00 40 960.7
20260507204504 64 293 3.0 8.0 0.00 0.20 0.00 40 960.8
20260507204004 63 286 3.0 7.0 0.00 0.20 0.00 39 960.9
20260507203504 63 289 5.0 8.0 0.00 0.20 0.00 40 960.7
20260507203004 63 287 5.0 8.0 0.00 0.20 0.00 40 960.6
20260507202503 62 302 5.0 9.0 0.00 0.20 0.00 41 960.8
20260507202004 63 292 3.0 7.0 0.00 0.20 0.00 39 961.0
20260507201004 65 299 5.0 8.0 0.00 0.20 0.00 38 960.9
20260507195504 63 274 3.0 8.0 0.00 0.20 0.00 42 961.2
20260507195004 63 344 4.0 8.0 0.00 0.20 0.00 40 961.1
20260507194004 64 287 5.0 8.0 0.00 0.20 0.00 41 961.0
20260507193004 64 292 3.0 8.0 0.00 0.20 0.00 41 961.0
20260507192004 63 306 3.0 7.0 0.00 0.20 0.00 39 961.0
20260507191504 63 274 4.0 12.0 0.00 0.20 0.00 38 961.0
20260507185504 63 308 3.0 6.0 0.00 0.20 0.00 40 961.1
20260507184504 63 291 4.0 8.0 0.00 0.20 0.00 39 961.4
20260507184004 63 301 4.0 8.0 0.00 0.20 0.00 39 961.2
20260507183504 63 281 3.0 7.0 0.00 0.20 0.00 40 961.3
20260507183004 63 266 2.0 7.0 0.00 0.20 0.00 40 961.2
20260507182503 63 295 3.0 7.0 0.00 0.20 0.00 41 961.2
20260507182004 63 328 2.0 5.0 0.00 0.20 0.00 40 961.2
20260507181503 63 299 4.0 8.0 0.00 0.20 0.00 39 961.4
20260507181004 63 291 3.0 7.0 0.00 0.20 0.00 42 961.3
20260507180504 62 278 3.0 8.0 0.00 0.20 0.00 40 961.3
20260507180004 62 297 5.0 9.0 0.00 0.20 0.00 39 961.4
20260507175504 63 265 3.0 8.0 0.00 0.20 0.00 40 961.5
20260507175003 62 278 3.0 8.0 0.00 0.20 0.00 41 961.5
20260507174504 61 297 2.0 5.0 0.00 0.20 0.00 42 961.6
20260507174004 60 4 5.0 9.0 0.00 0.20 0.00 43 961.7
20260507173504 61 291 5.0 9.0 0.00 0.20 0.00 41 961.8
20260507172504 61 300 4.0 8.0 0.00 0.20 0.00 42 961.9
20260507172004 61 295 3.0 7.0 0.00 0.20 0.00 43 961.9
20260507171504 60 293 3.0 6.0 0.00 0.20 0.00 42 961.9
20260507171003 60 331 3.0 6.0 0.00 0.20 0.00 42 962.0
20260507170504 60 340 3.0 8.0 0.00 0.20 0.00 42 962.2
20260507170003 60 278 3.0 10.0 0.00 0.20 0.00 43 962.3
20260507165504 60 317 3.0 6.0 0.00 0.20 0.00 42 962.2
20260507164504 59 2 2.0 6.0 0.00 0.20 0.00 42 962.3
20260507164004 59 43 2.0 6.0 0.00 0.20 0.00 43 962.4
20260507163004 59 345 3.0 5.0 0.00 0.20 0.00 44 962.7
20260507161503 59 335 3.0 6.0 0.00 0.20 0.00 44 962.7
20260507161004 58 286 2.0 6.0 0.00 0.20 0.00 46 962.6
20260507155503 58 304 2.0 6.0 0.00 0.20 0.00 50 962.8
20260507155004 58 248 3.0 7.0 0.00 0.20 0.00 45 962.9
20260507154504 57 263 2.0 7.0 0.00 0.20 0.00 46 963.0
20260507154004 57 266 2.0 6.0 0.00 0.20 0.00 49 963.0
20260507153504 57 257 3.0 5.0 0.00 0.20 0.00 48 963.0
20260507153004 56 273 2.0 7.0 0.00 0.20 0.00 47 963.0
20260507152004 56 257 2.0 3.0 0.00 0.20 0.00 49 963.0
20260507151005 55 242 2.0 5.0 0.00 0.20 0.00 50 963.0
20260507150004 55 34 3.0 6.0 0.00 0.20 0.00 47 963.1
20260507145505 55 270 2.0 5.0 0.00 0.20 0.00 49 963.0
20260507145004 55 12 2.0 6.0 0.00 0.20 0.00 50 963.0
20260507144504 55 269 3.0 7.0 0.00 0.20 0.00 47 963.2
20260507144004 55 279 3.0 6.0 0.00 0.20 0.00 47 963.8
20260507143004 54 283 2.0 3.0 0.00 0.20 0.00 51 963.8
20260507142504 54 24 3.0 5.0 0.00 0.20 0.00 50 963.9
20260507142004 54 314 3.0 6.0 0.00 0.20 0.00 48 963.9
20260507141504 53 322 2.0 5.0 0.00 0.20 0.00 51 964.0
20260507141004 53 316 4.0 10.0 0.00 0.20 0.00 54 964.1
20260507140005 52 261 3.0 6.0 0.00 0.20 0.00 55 964.4
20260507135504 51 39 1.0 5.0 0.00 0.20 0.00 54 964.5
20260507135005 51 43 3.0 6.0 0.00 0.21 0.00 54 964.6
20260507134503 51 243 1.0 3.0 0.00 0.21 0.00 56 964.7
20260507134004 51 29 2.0 6.0 0.00 0.21 0.00 56 964.7
20260507133504 50 28 2.0 6.0 0.00 0.22 0.00 61 964.8
20260507133004 50 330 1.0 2.0 0.00 0.22 0.00 62 964.8
20260507132504 50 44 2.0 6.0 0.00 0.22 0.00 61 964.9
20260507132004 50 309 2.0 3.0 0.00 0.23 0.00 58 964.9
20260507131504 50 347 1.0 3.0 0.00 0.23 0.00 58 964.8
20260507131004 50 76 0.0 3.0 0.00 0.23 0.00 58 964.8
20260507130504 50 311 2.0 3.0 0.00 0.23 0.00 58 964.9
20260507130004 50 304 0.0 2.0 0.00 0.24 0.00 57 965.0
20260507125503 50 293 1.0 3.0 0.00 0.25 0.00 58 965.0
20260507125004 49 45 1.0 2.0 0.00 0.26 0.00 61 965.0
20260507124504 49 282 1.0 2.0 0.00 0.27 0.00 60 965.0
20260507124004 49 322 1.0 2.0 0.00 0.27 0.00 65 964.9
20260507123504 49 308 0.0 2.0 0.00 0.27 0.00 61 964.9
20260507123004 49 326 2.0 7.0 0.00 0.28 0.00 61 964.9
20260507122504 49 18 2.0 7.0 0.00 0.28 0.00 60 964.8
20260507122004 49 19 1.0 2.0 0.00 0.29 0.00 61 964.8
20260507121505 49 295 0.0 1.0 0.00 0.29 0.00 64 964.8
20260507121004 48 317 0.0 1.0 0.00 0.29 0.00 62 964.8
20260507120005 48 334 0.0 2.0 0.00 0.30 0.00 64 964.7
20260507115505 48 44 1.0 3.0 0.00 0.30 0.00 63 964.7
20260507115004 48 46 1.0 3.0 0.00 0.31 0.00 64 964.7
20260507114504 48 38 1.0 3.0 0.00 0.32 0.00 68 964.7
20260507114003 48 299 1.0 2.0 0.00 0.33 0.00 67 964.8
20260507113504 48 300 2.0 5.0 0.00 0.34 0.00 67 964.8
20260507113005 48 13 1.0 3.0 0.00 0.37 0.00 64 964.8
20260507112503 47 16 2.0 3.0 0.00 0.37 0.00 63 964.7
20260507112004 47 305 2.0 3.0 0.00 0.38 0.00 64 964.6
20260507111506 47 333 2.0 7.0 0.00 0.39 0.00 66 964.5
20260507111004 47 49 3.0 7.0 0.00 0.39 0.00 64 964.5
20260507110005 47 299 2.0 3.0 0.00 0.40 0.00 67 964.4
20260507105504 47 320 2.0 3.0 0.00 0.40 0.00 68 964.4
20260507105004 47 35 2.0 3.0 0.00 0.40 0.00 65 964.3
20260507104504 47 304 1.0 2.0 0.00 0.41 0.00 67 964.3
20260507104004 47 292 1.0 2.0 0.00 0.42 0.00 68 964.3
20260507103504 47 297 2.0 2.0 0.00 0.42 0.00 66 964.2
20260507103004 47 343 1.0 2.0 0.00 0.43 0.00 66 964.1
20260507102006 47 216 1.0 3.0 0.00 0.43 0.00 65 964.0
20260507101504 47 314 2.0 3.0 0.00 0.43 0.00 64 963.9
20260507101004 47 15 0.0 2.0 0.00 0.44 0.00 67 963.9
20260507100004 47 267 1.0 2.0 0.00 0.44 0.00 68 963.9
20260507095504 47 290 0.0 1.0 0.00 0.45 0.00 66 964.0
20260507095004 47 293 1.0 3.0 0.00 0.45 0.00 67 964.1
20260507094504 47 354 1.0 2.0 0.00 0.45 0.00 68 964.1
20260507093504 47 255 2.0 5.0 0.00 0.46 0.00 68 964.1
20260507093004 47 287 3.0 5.0 0.00 0.46 0.00 66 964.0
20260507092503 47 357 3.0 5.0 0.00 0.46 0.00 65 964.0
20260507092004 47 334 3.0 5.0 0.00 0.46 0.00 66 963.9
20260507091504 47 301 2.0 3.0 0.00 0.46 0.00 66 964.0
20260507091004 48 271 2.0 5.0 0.00 0.46 0.00 67 964.0
20260507090503 48 319 2.0 3.0 0.00 0.46 0.00 66 964.0
20260507090005 48 347 2.0 3.0 0.00 0.46 0.00 67 963.9
20260507085504 48 330 2.0 3.0 0.00 0.46 0.00 68 963.9
20260507084504 48 326 3.0 5.0 0.00 0.46 0.00 68 963.9
20260507082504 48 311 1.0 3.0 0.00 0.46 0.00 72 963.8
20260507082004 48 317 2.0 3.0 0.00 0.46 0.00 71 963.8
20260507081004 48 303 1.0 2.0 0.00 0.46 0.00 72 963.8
20260507080504 49 334 1.0 3.0 0.00 0.46 0.00 67 963.7
20260507080003 49 322 2.0 3.0 0.00 0.46 0.00 69 963.8
20260507075504 49 7 2.0 5.0 0.00 0.46 0.00 68 963.8
20260507075004 49 66 2.0 5.0 0.00 0.46 0.00 70 963.8
20260507074503 49 298 2.0 3.0 0.00 0.46 0.00 70 963.8
20260507074004 49 291 2.0 3.0 0.00 0.46 0.00 70 963.8
20260507073504 49 280 2.0 3.0 0.00 0.46 0.00 70 963.7
20260507073004 49 298 2.0 3.0 0.00 0.46 0.00 71 963.7
20260507072004 49 316 2.0 3.0 0.00 0.46 0.00 72 963.6
20260507071504 49 296 2.0 3.0 0.00 0.46 0.00 75 963.7
20260507070504 49 286 1.0 2.0 0.00 0.46 0.00 79 963.7
20260507070008 49 324 1.0 2.0 0.00 0.46 0.00 79 963.7
20260507065504 49 287 2.0 2.0 0.00 0.46 0.00 77 963.8
20260507065003 49 294 1.0 2.0 0.00 0.46 0.00 77 963.7
20260507064504 49 292 2.0 5.0 0.00 0.46 0.00 77 963.7
20260507064004 49 275 2.0 3.0 0.00 0.46 0.00 80 963.8
20260507063503 49 290 1.0 3.0 0.00 0.46 0.00 79 963.7
20260507063003 49 293 2.0 3.0 0.00 0.46 0.00 84 963.8
20260507062504 50 287 2.0 3.0 0.00 0.46 0.00 86 963.7
20260507062004 50 313 2.0 3.0 0.00 0.46 0.00 87 963.7
20260507061503 50 260 2.0 3.0 0.00 0.46 0.00 85 963.7
20260507061004 50 299 2.0 2.0 0.00 0.46 0.00 88 963.8
20260507060504 50 276 2.0 2.0 0.00 0.46 0.00 85 963.9
20260507060004 50 287 2.0 3.0 0.00 0.46 0.00 88 963.9
20260507055504 50 310 2.0 5.0 0.00 0.46 0.00 88 963.9
20260507055004 50 286 2.0 3.0 0.00 0.46 0.00 90 964.0
20260507054504 50 318 2.0 3.0 0.00 0.46 0.00 91 963.9
20260507054004 50 309 1.0 2.0 0.00 0.46 0.00 89 964.0
20260507053504 50 289 2.0 2.0 0.00 0.46 0.00 89 964.0
20260507053004 50 253 1.0 2.0 0.00 0.46 0.00 89 964.1
20260507052504 50 275 1.0 2.0 0.00 0.46 0.00 89 964.0
20260507052004 50 301 1.0 2.0 0.00 0.46 0.00 89 964.0
20260507051504 50 258 1.0 3.0 0.00 0.46 0.00 90 964.0
20260507051004 50 310 1.0 2.0 0.00 0.46 0.00 90 963.9
20260507050504 50 281 1.0 2.0 0.00 0.46 0.00 91 963.9
20260507050004 50 284 1.0 2.0 0.00 0.46 0.00 92 963.9
20260507045504 50 293 1.0 2.0 0.20 0.46 0.00 91 963.8
20260507045004 50 300 2.0 2.0 0.20 0.46 0.00 91 963.8
20260507043504 50 292 1.0 2.0 0.20 0.47 0.00 88 964.0
20260507043003 50 269 2.0 3.0 0.20 0.47 0.00 88 963.9
20260507042504 50 287 1.0 2.0 0.20 0.47 0.00 90 963.9
20260507041004 50 313 2.0 3.0 0.20 0.47 0.00 90 964.0
20260507040004 50 267 1.0 2.0 0.00 0.26 0.00 90 963.9
20260507035504 50 309 2.0 3.0 0.00 0.26 0.20 90 964.0
20260507035004 50 265 2.0 2.0 0.00 0.26 0.20 89 964.1
20260507034004 50 297 1.0 2.0 0.00 0.26 0.20 89 964.1
20260507033504 51 279 1.0 5.0 0.00 0.26 0.20 88 964.2
20260507033003 51 292 1.0 3.0 0.00 0.26 0.20 89 964.3
20260507032504 51 255 1.0 2.0 0.00 0.26 0.20 88 964.1
20260507032004 51 271 1.0 2.0 0.00 0.26 0.20 88 964.0
20260507031504 51 290 1.0 2.0 0.00 0.26 0.20 88 964.0
20260507031003 51 18 2.0 3.0 0.00 0.26 0.20 84 964.2
20260507030504 51 342 2.0 5.0 0.00 0.26 0.20 84 964.0
20260507030004 51 59 1.0 3.0 0.00 0.26 0.20 84 963.9
20260507025504 51 46 1.0 1.0 0.00 0.26 0.20 85 963.9
20260507024504 51 295 0.0 1.0 0.00 0.26 0.20 86 964.3
20260507024003 51 311 0.0 1.0 0.00 0.26 0.20 85 964.1
20260507023503 51 315 0.0 1.0 0.00 0.26 0.20 86 964.1
20260507023004 51 52 1.0 2.0 0.00 0.26 0.20 88 964.0
20260507022504 51 290 1.0 2.0 0.00 0.26 0.20 88 963.9
20260507022004 51 313 1.0 2.0 0.00 0.26 0.20 89 963.8
20260507021503 51 301 1.0 3.0 0.00 0.26 0.20 88 964.0
20260507021004 51 281 1.0 3.0 0.00 0.26 0.20 89 963.8
20260507020504 51 305 2.0 3.0 0.00 0.26 0.20 86 963.6
20260507020003 51 291 2.0 3.0 0.00 0.26 0.20 87 963.6
20260507015503 51 264 2.0 3.0 0.00 0.26 0.20 87 963.8
20260507015004 51 302 2.0 3.0 0.00 0.26 0.20 87 963.9
20260507014004 51 276 2.0 3.0 0.00 0.26 0.20 88 964.0
20260507013504 51 271 2.0 3.0 0.00 0.26 0.20 88 963.6
20260507013004 52 319 2.0 6.0 0.00 0.26 0.20 88 963.4
20260507012504 52 327 2.0 3.0 0.00 0.26 0.20 88 963.5
20260507012003 52 339 2.0 3.0 0.00 0.26 0.20 88 963.4
20260507010504 53 307 1.0 2.0 0.00 0.26 0.20 92 963.4
20260507010004 53 317 1.0 2.0 0.00 0.26 0.20 91 963.5
20260507005004 53 352 2.0 3.0 0.00 0.26 0.20 89 963.5
20260507004503 53 316 1.0 2.0 0.00 0.26 0.20 89 963.4
20260507003504 53 355 1.0 2.0 0.00 0.26 0.20 90 963.2
20260507003004 53 346 1.0 2.0 0.00 0.26 0.20 90 963.3
20260507002504 53 353 2.0 3.0 0.00 0.26 0.20 89 963.7
20260507002003 53 349 2.0 3.0 0.00 0.26 0.20 90 963.8
20260507001004 53 301 2.0 3.0 0.00 0.26 0.20 90 963.5
20260507000504 53 313 2.0 3.0 0.00 0.26 0.20 89 963.5
20260507000004 53 325 2.0 3.0 0.00 0.26 0.20 89 963.4
20260506235504 53 319 2.0 3.0 0.00 0.26 0.20 89 963.4
20260506235005 53 329 2.0 3.0 0.00 0.26 0.20 90 963.3
20260506234504 53 290 2.0 5.0 0.00 0.26 0.20 89 963.3
20260506234004 54 304 2.0 3.0 0.00 0.26 0.20 89 963.1
20260506233504 54 331 2.0 3.0 0.00 0.26 0.20 89 963.2
20260506232504 54 341 3.0 5.0 0.00 0.26 0.20 88 963.4
20260506232004 54 302 3.0 5.0 0.00 0.26 0.20 89 963.2
20260506231503 54 296 1.0 3.0 0.00 0.26 0.20 87 962.9
20260506231004 54 293 2.0 3.0 0.00 0.26 0.20 88 962.9
20260506230504 55 314 3.0 5.0 0.00 0.26 0.20 86 962.7
20260506230004 55 305 2.0 3.0 0.00 0.26 0.20 87 962.5
20260506225504 55 292 1.0 3.0 0.00 0.26 0.20 86 962.6
20260506225004 55 277 2.0 5.0 0.00 0.26 0.20 86 962.6
20260506224504 55 298 2.0 5.0 0.00 0.26 0.20 87 962.7
20260506224004 56 287 1.0 3.0 0.00 0.26 0.20 87 962.6
20260506223004 56 349 2.0 5.0 0.00 0.26 0.20 85 962.4
20260506222004 56 331 2.0 3.0 0.00 0.26 0.20 85 962.4
20260506221504 56 285 2.0 3.0 0.00 0.26 0.20 86 962.5
20260506221004 56 292 2.0 5.0 0.00 0.26 0.20 85 962.5
20260506220004 57 294 2.0 2.0 0.00 0.26 0.20 86 962.5
20260506215504 57 322 1.0 2.0 0.00 0.26 0.20 86 962.4
20260506215004 57 317 1.0 2.0 0.00 0.26 0.20 86 962.2
20260506214004 57 11 2.0 5.0 0.00 0.26 0.20 84 962.0
20260506213504 57 305 2.0 5.0 0.00 0.26 0.20 85 961.9
20260506213004 57 296 3.0 6.0 0.00 0.26 0.20 84 961.8
20260506212503 57 297 2.0 5.0 0.00 0.26 0.20 85 961.7